星链-34638 (STARLINK-34638)

导读

STARLINK-34638是美国SpaceX公司星链星座的成员,于2025年7月8日发射入轨,运行于近地低轨轨道。作为星链卫星互联网项目的一部分,它搭载相控阵天线与星间激光通信模块,依托低轨轨道低时延优势,可为全球偏远地区用户提供宽带互联网接入服务,助力星链完成全球网络覆盖,也推动了低轨卫星互联网产业的规模化发展。

基本信息
目录编号:
64762
目录名称:
STARLINK-34638
国际标识:
2025-147H
轨道中心:
EARTH
卫星名称:
星链-34638
卫星全名:
星链-34638 (STARLINK-34638)
卫星状态:
在轨 (已飞行340 天)
发射日期:
2025-07-08 UTC
国别 :
美国 (US)
星等 :
--
轨道信息
数据来源 国际轨道数据
星历时间: 2026-06-13T14:17:46+0800
15小时前
查看轨道信息
半长轴: 6840.837km
偏心率: 0.0001304
轨道倾角: 53.158°
近地点辐角 89.623°
升交点赤经 157.463°
平近点角 270.492°
近地点: 461.807km
远地点: 463.593km
周期: 93.848分钟
每日圈数: 15.344012
详细信息
固有亮度:
5
最大亮度:
2.5
卫星平台:
Starlink V1.0
覆盖范围:
全球
运营商:
太空探索技术公司
运营商所在国:
美国
制造商(研发单位):
太空探索技术公司
制造商所在国:
美国
使用方式:
暂无
卫星简介
Starlink 计划是 SpaceX 推出的全球卫星互联网项目,通过发射低轨道卫星,为全球尤其是偏远地区提供高速、低延迟的互联网服务。自 2019 年起,Starlink 已部署数千颗卫星,旨在缩小全球数字鸿沟,推动互联网普及。该项目还为军事、航空等行业提供通信支持,带来广泛经济效益。
2D轨道图
3D轨道图
轨道高度分析图
轨道倾角分析图
轨道综合分析图
查看轨道综合分析图